Location: Assche-ter-Heiden
(50.9174°N, 4.1574°E)
Time: 19:45:44
(UTC+00:00)

Cosmos 2263 Rocket - Pass Details

Date: 20 January 2020
Orbit: 823 x 849 km, 71.0° (Epoch: 21 February)

Event Time Altitude Azimuth Distance (km) Brightness Sun altitude
Exits shadow 05:48:21 15° 327° (NNW) 2,152 3.9 -16.5°
Maximum altitude 05:53:10 77° 243° (WSW) 868 2.1 -15.7°
Drops below altitude 10° 05:58:48 10° 159° (SSE) 2,460 5.1 -14.9°
Sets 06:01:15 0° 158° (SSE) 3,395 5.9 -14.5°
